Location: Mary A Oil Field
(38.5606°N, 98.9545°W)
Time: 10:10:50
(UTC+00:00)

TIMED - Pass Details

Date: 20 January 2020
Orbit: 602 x 605 km, 74.1° (Epoch: 16 February)

Event Time Altitude Azimuth Distance (km) Brightness Sun altitude
Rises 01:06:10 0° 341° (NNW) 2,866 8.1 -16.2°
Reaches altitude 10° 01:08:25 10° 340° (NNW) 1,958 7.2 -16.6°
Maximum altitude 01:12:48 85° 253° (WSW) 613 4.5 -17.4°
Drops below altitude 10° 01:17:09 10° 165° (SSE) 1,945 7.1 -18.3°
Sets 01:19:22 0° 165° (SSE) 2,844 7.9 -18.7°
